NOAA 16 DEB, 42390

Orbit data source: Space-Track

NOAA 16 DEB, 42390 is space debris in SSO originally from a launch on Thu, 21 Sep 2000 UTC launched from the Air Force Western Test Range (AFWTR). Debris objects in space refer to the collection of defunct objects orbiting the Earth. Examples of debris include non-operational satellites, rocket bodies, and fragments generated from explosions, collisions, or faulty payload assembly.

Loading next visibility...
NOAA 16 DEB details
Identifier
42390, 2000-055SJ
Orbit
SSO
Last TLE update12 hours ago
Origin
Flag of USNOAA (US)
ManufacturerUnknown
MissionSpacecraft
Bus & MotorUnknown
MassUnknown
Launch date (UTC)
2000-09-21 (24 years ago)
Launch vehicleUnknown
Launch site
Air Force Western Test Range (AFWTR)
Object type
Payload
Rocket body
Debris
Shape & HBRUnknown
Radar Cross SectionSmall (<0.1 m²)

Expand to show TLE details & history

TLE from 12 hours ago
0 NOAA 16 DEB
1 42390U 00055SJ  24361.16907766  .00006427  00000-0  27436-2 0  9999
2 42390  98.6597  70.7127 0014683 308.5923  51.3940 14.25300826457616
Epoch: 2024-12-26T04:03Z
Definitive object data (Epoch: 2024-12-26T04:03:28.309Z)
Latitude-0.00013°
Longitude-85.30757°
Altitude803.83 km
Speed7.455 km/s
True Right ascension04h 42m 51s
True Declination0° 00' 00"
Sunlit
Object was in full shadow at TLE epoch
Visualization TLE readout
Latitude-61.08432°
Longitude-68.91689°
Altitude820.529 km
Speed7.447 km/s
Apparent Right ascension04h 06m 49s
Apparent Declination-52° 56' 16"
Sunlit
Object is in daylight
Visualization observer readout
Local Sidereal Time14:55:41
Azimuth217.054° SW
Elevation-72.213°
Doppler factor1
Orbital elements
Apogee altitude815.177 km
Perigee altitude794.084 km
Semi-major axis7,182.768 km
Eccentricity0.0014683
Inclination98.6597°
RAAN70.7127°
Arg. of periapsis308.5923°
True anomaly51.52563°
Mean anomaly51.394°
Eccentric anomaly51.4598°
Mean motion3.56538 °/min
BSTAR0.0027436
Orbital period100.97 mins
Loading maneuver chart data...
Loading historical data...
Loading historical data...
Loading historical data...
Loading historical data...
Loading historical data...
Loading historical data...
Loading historical data...

NOAA 16 DEB Visibility forecast

Observer location: undefined°, undefined

Span
Click to sort rows by Start time (UTC) header in descending order
Start Az.
Max El. time (UTC)
Max El. Az.
Max El.
End time (UTC)
End Az.
5 mins2024-12-26 16:28:39.977Z63.705° ENE2024-12-26 16:30:39.977Z88.503° E15.549°2024-12-26 16:33:39.977Z125.076° SE
8 mins2024-12-26 18:07:39.977Z0.814° NNE2024-12-26 18:10:39.977Z310.417° NW40.486°2024-12-26 18:15:39.977Z209.968° SW
6 mins2024-12-27 03:48:39.977Z103.592° ESE2024-12-27 03:50:39.977Z74.015° E22.633°2024-12-27 03:54:39.977Z17.258° NNE
7 mins2024-12-27 05:27:39.977Z203.54° SW2024-12-27 05:30:39.977Z260.034° W32.976°2024-12-27 05:34:39.977Z326.174° NNW
|